Location: Unspecified
(0.0000°N, 0.0000°E)
Time: 12:15:00
(UTC+00:00)

deb r/b Ablestar - Pass Details

Date: 20 April 2026
Orbit: 834 x 1371 km, 65.9° (Epoch: 10 May)

Event Time Altitude Azimuth Distance (km) Brightness Sun altitude
Exits shadow 03:57:28 52° 194° (SSW) 1,441 ? -29.7°
Maximum altitude 03:59:35 85° 110° (ESE) 1,223 ? -29.2°
Drops below altitude 10° 04:07:40 10° 22° (NNE) 3,325 ? -27.2°
Sets 04:10:37 0° 22° (NNE) 4,339 ? -26.5°
